Terminal Aerodrome Forecast
Issued by NWS

Home | Current Version | Previous Version | Graphics & Text | Print | Product List | Glossary On
Versions: 1 2 3 4 5 6 7 8 9 10 11 12 13 14 15 16 17 18 19 20 21 22
000
FTUS43 KABR 280643 AAA
TAFATY
TAF AMD
KATY 280643Z 2807/2906 02004KT 5SM BR VCSH SCT008 BKN020
      TEMPO 2807/2810 OVC008
     FM281000 04005KT 3SM BR VCSH OVC007
     FM281600 02008KT P6SM VCSH OVC010
     FM282200 35008KT P6SM VCSH BKN050
     FM290300 30005KT P6SM SCT070=

USA.gov is the U.S. government's official web portal to all federal, state and local government web resources and services.